Tracking 18784 objects as of 18-August-2017
HD Live streaming from Space Station
objects crossing your sky now

TURKSAT 2A

Track TURKSAT 2A now!
TURKSAT 2A is classified as:


NORAD ID: 26666
Int'l Code: 2001-002A
Perigee: 36,347.3 km
Apogee: 36,417.0 km
Inclination: 1.3 °
Period: 1,466.3 minutes
Semi major axis: 42753 km
RCS: 3.9 m2 (large)
Launch date: January 10, 2001
Source: Turkey (TURK)
Launch site: FRENCH GUIANA (FRGUI)

32 Ku-band transponders; direct-to-home voice, video, and data transmissions to countries between central Europe and the Indian subcontinent.
Your satellite tracking list
Your tracking list is empty





NASA's NSSDC Master Catalog

Two Line Element Set (TLE):
1 26666U 01002A   17228.79769794 -.00000152 +00000-0 +00000-0 0  9996
2 26666 001.2834 085.9412 0008148 219.4107 140.7790 00.98208845060604
Source of the keplerian elements: AFSPC